Location: Guadalupe
(27.3418°N, 113.3313°W)
Time: 18:13:21
(UTC+00:00)

Daily predictions for brighter satellites

Satellite Brightness Start Highest point End
(mag) Time Altitude Azimuth Time Altitude Azimuth Time Altitude Azimuth
Cosmos 1340 4.2 12:01:13 10° SW 12:03:59 20° WNW 12:06:48 10° NNW
STARLINK-52 2.9 12:01:44 10° NW 12:04:56 89° NE 12:08:07 10° SE
BREEZE-M DEB (TANK) 3.6 12:03:13 10° W 12:05:50 27° SW 12:11:43 10° SSE
CZ-4B R/B 4.3 12:02:54 10° NNE 12:07:20 77° E 12:11:48 10° S
Cosmos 2344 4.2 12:00:15 10° WSW 12:07:22 38° NW 12:14:21 10° NNE
Meteosat 1 Rocket2 4.5 12:02:01 10° WSW 12:08:00 70° SSE 12:17:27 10° E
STARLINK-1053 3.8 12:03:56 10° SSW 12:08:02 71° SE 12:12:09 10° NE
Cosmos 1680 Rocket 4.5 12:04:20 10° SW 12:08:53 30° WNW 12:13:29 10° N
STARLINK-1065 3.7 12:07:42 10° SW 12:11:50 79° SE 12:15:57 10° NE
STARLINK-1061 3.7 12:08:52 10° SW 12:13:00 80° SE 12:17:08 10° NE
Cosmos 1666 Rocket 4.3 12:09:20 10° S 12:13:42 60° E 12:18:06 10° NNE
